KC3BBT-13 Weather Reports


Display with metric or nautical units.
time (UTC)temp
F
wind
direction
speed
MPH
gust
MPH
rain 1hr
in
rain 24hr
in
rain mn
in
humidity
%
barometer
mb
20260510060700 56 0 0.0 0.0 0.00 0.00 0.00 87 1011.1
20260510055341 57 0 0.0 0.0 0.00 0.00 0.00 86 1011.0
20260510054046 57 0 0.0 0.0 0.00 0.00 0.00 86 1011.1
20260510052726 57 0 0.0 0.0 0.00 0.00 0.00 85 1011.2
20260510051526 58 0 0.0 0.0 0.00 0.00 0.00 85 1011.2
20260510050316 58 0 0.0 0.0 0.00 0.00 0.00 85 1011.1
20260510044911 59 0 0.0 0.0 0.00 0.00 0.00 85 1011.0
20260510043711 59 0 0.0 2.0 0.00 0.00 0.00 85 1011.1
20260510042421 59 0 0.0 0.0 0.00 0.00 0.00 84 1011.1
20260510041041 59 0 0.0 0.0 0.00 0.00 0.00 83 1011.0
20260510035706 59 0 0.0 0.0 0.00 0.00 0.00 83 1011.0
20260510034235 60 0 0.0 0.0 0.00 0.00 0.00 83 1011.0
20260510033011 60 0 0.0 0.0 0.00 0.00 0.00 82 1010.9
20260510031751 60 0 0.0 0.0 0.00 0.00 0.00 81 1010.9
20260510030521 61 0 0.0 0.0 0.00 0.00 0.00 81 1010.9
20260510030446 61 0 0.0 0.0 0.00 0.00 0.00 81 1010.9
20260510025300 61 0 0.0 0.0 0.00 0.00 0.00 79 1010.9
20260510025226 61 0 0.0 0.0 0.00 0.00 0.00 79 1010.9
20260510023916 62 0 0.0 0.0 0.00 0.00 0.00 78 1010.8
20260510022642 62 0 0.0 0.0 0.00 0.00 0.00 78 1010.7
20260510021351 63 0 0.0 0.0 0.00 0.00 0.00 77 1010.5
20260510020151 63 0 0.0 0.0 0.00 0.00 0.00 76 1010.5
20260510014725 63 0 0.0 1.0 0.00 0.00 0.00 76 1010.4
20260510013502 64 0 0.0 2.0 0.00 0.00 0.00 76 1010.2
20260510012226 64 0 0.0 0.0 0.00 0.00 0.00 74 1010.0
20260510011024 64 71 3.0 3.0 0.00 0.00 0.00 73 1009.8
20260510005618 65 0 0.0 0.0 0.00 0.00 0.00 71 1009.6
20260510004341 65 0 0.0 1.0 0.00 0.00 0.00 70 1009.5
20260510002921 66 0 0.0 0.0 0.00 0.00 0.00 67 1009.5
20260510001638 68 0 0.0 0.0 0.00 0.00 0.00 64 1009.4
20260510000306 70 0 0.0 0.0 0.00 0.00 0.00 61 1009.3
20260509234813 71 0 0.0 0.0 0.00 0.00 0.00 58 1009.2
20260509233346 72 0 0.0 0.0 0.00 0.00 0.00 56 1009.1
20260509232213 72 0 0.0 0.0 0.00 0.00 0.00 55 1009.0
20260509232109 72 0 0.0 0.0 0.00 0.00 0.00 55 1009.0
20260509230826 73 0 0.0 0.0 0.00 0.00 0.00 55 1009.0
20260509225727 73 0 0.0 0.0 0.00 0.00 0.00 57 1009.1
20260509225602 73 0 0.0 0.0 0.00 0.00 0.00 57 1009.1
20260509224306 73 204 1.0 1.0 0.00 0.00 0.00 54 1009.1
20260509223055 73 0 0.0 2.0 0.00 0.00 0.00 52 1008.9
20260509221751 73 0 0.0 3.0 0.00 0.00 0.00 52 1009.1
20260509220336 74 0 0.0 0.0 0.00 0.00 0.00 51 1009.0
20260509215001 74 0 0.0 0.0 0.00 0.00 0.00 50 1009.0
20260509213611 74 275 1.0 2.0 0.00 0.00 0.00 51 1009.0
20260509212131 75 0 0.0 2.0 0.00 0.00 0.00 50 1009.0
20260509210646 76 0 0.0 6.0 0.00 0.00 0.00 49 1009.1
20260509205516 75 0 0.0 8.0 0.00 0.00 0.00 50 1009.0
20260509205331 75 0 0.0 8.0 0.00 0.00 0.00 50 1009.0
20260509204032 75 290 1.0 3.0 0.00 0.00 0.00 51 1008.9
20260509202656 75 272 3.0 3.0 0.00 0.00 0.00 51 1008.7
20260509201422 74 0 0.0 7.0 0.00 0.00 0.00 52 1009.0
20260509200219 74 0 0.0 8.0 0.00 0.00 0.00 52 1009.3
20260509195011 74 162 11.0 11.0 0.00 0.00 0.00 52 1009.4
20260509193800 73 240 6.0 6.0 0.00 0.00 0.00 55 1009.6
20260509192536 73 0 0.0 1.0 0.00 0.00 0.00 56 1010.0
20260509191226 71 0 0.0 7.0 0.00 0.00 0.00 58 1010.1
20260509185925 71 213 1.0 7.0 0.00 0.00 0.00 59 1010.0
20260509185811 71 213 1.0 7.0 0.00 0.00 0.00 59 1010.0
20260509184356 69 203 3.0 10.0 0.00 0.00 0.00 60 1010.2
20260509183111 68 0 0.0 0.0 0.00 0.00 0.00 61 1010.3
20260509181636 68 0 0.0 0.0 0.00 0.00 0.00 62 1010.5
20260509180322 69 0 0.0 0.0 0.00 0.00 0.00 59 1011.0
20260509175015 69 0 0.0 0.0 0.00 0.00 0.00 56 1010.9
20260509173631 70 0 0.0 0.0 0.00 0.00 0.00 57 1011.0
20260509172406 70 0 0.0 4.0 0.00 0.00 0.00 56 1011.0
20260509171006 68 0 0.0 1.0 0.00 0.00 0.00 58 1011.3
20260509165641 68 0 0.0 0.0 0.00 0.00 0.00 58 1011.3
20260509164221 68 257 3.0 7.0 0.00 0.00 0.00 58 1011.5
20260509163027 68 267 1.0 6.0 0.00 0.00 0.00 58 1011.4
20260509162901 68 267 1.0 6.0 0.00 0.00 0.00 58 1011.4
20260509161626 68 0 0.0 1.0 0.00 0.00 0.00 58 1011.4
20260509160209 67 150 3.0 5.0 0.00 0.00 0.00 61 1011.5
20260509154941 66 213 8.0 8.0 0.00 0.00 0.00 60 1011.8
20260509153511 66 0 0.0 0.0 0.00 0.00 0.00 59 1011.8
20260509152319 66 0 0.0 10.0 0.00 0.00 0.00 62 1011.7
20260509152148 66 0 0.0 10.0 0.00 0.00 0.00 62 1011.7
20260509150838 64 0 0.0 5.0 0.00 0.00 0.00 64 1012.0
20260509150706 64 0 0.0 5.0 0.00 0.00 0.00 64 1012.0
20260509145410 63 0 0.0 4.0 0.00 0.00 0.00 65 1012.1
20260509144121 62 208 4.0 4.0 0.00 0.00 0.00 66 1012.4
20260509142746 61 0 0.0 5.0 0.00 0.00 0.00 66 1012.6
20260509141321 60 0 0.0 6.0 0.00 0.00 0.00 67 1012.7
20260509135851 60 0 0.0 6.0 0.00 0.00 0.00 66 1012.4
20260509134747 60 0 0.0 1.0 0.00 0.00 0.00 67 1012.6
20260509134631 60 0 0.0 1.0 0.00 0.00 0.00 67 1012.6
20260509133216 60 0 0.0 1.0 0.00 0.00 0.00 67 1012.6
20260509131921 60 0 0.0 7.0 0.00 0.00 0.00 66 1012.7
20260509130706 60 217 4.0 6.0 0.00 0.00 0.00 66 1012.7
20260509125431 60 202 3.0 9.0 0.00 0.00 0.00 65 1012.7
20260509124222 60 251 3.0 9.0 0.00 0.00 0.00 64 1012.4
20260509122854 59 202 1.0 7.0 0.00 0.00 0.00 65 1012.4
20260509122736 59 202 1.0 7.0 0.00 0.00 0.00 65 1012.4
20260509121320 59 186 6.0 10.0 0.00 0.00 0.00 63 1012.4
20260509115905 59 169 5.0 8.0 0.00 0.00 0.00 62 1012.4
20260509114511 59 0 0.0 2.0 0.00 0.00 0.00 61 1012.5
20260509113031 59 200 4.0 5.0 0.00 0.00 0.00 61 1012.3
20260509111951 59 0 0.0 4.0 0.00 0.00 0.00 60 1012.2
20260509111706 59 0 0.0 4.0 0.00 0.00 0.00 60 1012.2
20260509110451 59 195 1.0 8.0 0.00 0.00 0.00 58 1012.2
20260509105036 59 0 0.0 5.0 0.00 0.00 0.00 57 1012.2
20260509103556 59 0 0.0 6.0 0.00 0.00 0.00 56 1012.1
20260509102136 59 0 0.0 0.0 0.00 0.00 0.00 55 1011.9
20260509100831 59 0 0.0 2.0 0.00 0.00 0.00 55 1012.0
20260509095411 59 0 0.0 2.0 0.00 0.00 0.00 55 1011.7
20260509094135 59 0 0.0 2.0 0.00 0.00 0.00 54 1011.8
20260509092716 59 0 0.0 4.0 0.00 0.00 0.00 55 1012.1
20260509091453 59 0 0.0 3.0 0.00 0.00 0.00 54 1012.0
20260509090506 59 0 0.0 6.0 0.00 0.00 0.00 55 1012.0
20260509090308 59 0 0.0 6.0 0.00 0.00 0.00 55 1012.0
20260509090221 59 0 0.0 6.0 0.00 0.00 0.00 55 1012.0
20260509084931 59 0 0.0 5.0 0.00 0.00 0.00 56 1012.0
20260509083656 58 0 0.0 0.0 0.00 0.00 0.00 57 1012.2
20260509082219 58 0 0.0 0.0 0.00 0.00 0.00 59 1012.5
20260509080949 58 0 0.0 7.0 0.00 0.00 0.00 60 1012.6
20260509075511 58 0 0.0 0.0 0.00 0.00 0.00 59 1012.8
20260509074247 58 217 4.0 10.0 0.00 0.00 0.00 58 1012.8
20260509072826 59 0 0.0 8.0 0.00 0.00 0.00 58 1012.8
20260509071431 59 0 0.0 6.0 0.00 0.00 0.00 57 1012.7
20260509070410 59 254 1.0 2.0 0.00 0.00 0.00 56 1012.8
20260509070201 59 254 1.0 2.0 0.00 0.00 0.00 56 1012.8
20260509064741 59 259 4.0 7.0 0.00 0.00 0.00 55 1012.9
20260509063446 59 0 0.0 4.0 0.00 0.00 0.00 55 1013.0
20260509062031 59 165 1.0 3.0 0.00 0.00 0.00 54 1013.2